Location: *
(46.1333°S, 161.2167°W)
Time: 03:51:18
(UTC+00:00)

Aureole 3 Rocket - Pass Details

Date: 15 July 2020
Orbit: 399 x 1740 km, 82.5° (Epoch: 10 August)

Event Time Altitude Azimuth Distance (km) Brightness Sun altitude
Exits shadow 15:49:59 47° 135° (SE) 738 3.6 -25.6°
Maximum altitude 15:50:36 53° 100° (E) 703 3.6 -25.5°
Drops below altitude 10° 15:55:07 10° 23° (NNE) 2,159 6.2 -24.7°
Sets 15:57:51 0° 18° (NNE) 3,286 7.1 -24.3°
